Flushing, NY (11354)

12:54 AM EDT on August 04, 2015 (GMT -0400)
Cedar Grove Cemetery, Flushing | | Change Station
CLOSE
Current Station
Personal Weather Station
Location: New York, NY
Elevation: 49 ft
Nearby Weather Stations

Elev 49 ft 40.74 °N, 73.83 °W | Updated 5 minutes ago

Scattered Clouds
Scattered Clouds
76.6 °F
Feels Like 78 °F
N
4.2
Wind Variable Wind from South

Today
High -- | Low -- °F
--% Chance of Precip.
Yesterday
High -- | Low -- °F
Precip. -- in
5:54 AM 8:07 PM
Waning Gibbous, 81% visible
Pressure 29.81 in
Visibility 10.0 miles
Clouds Scattered Clouds 12000 ft
Scattered Clouds 25000 ft
Heat Index 78 °F
Dew Point 68 °F
Humidity 75%
Rainfall 0.00 in
Snow Depth Not available.
UV 0 out of 12
Pollen 7.80 out of 12
Air Quality Not available.
Flu Activity Not available.
METAR KLGA 040451Z 21008KT 10SM SCT120 SCT250 28/17 A2980 RMK AO2 SLP092 T02830167 403330244 $

More Conditions Fewer Conditions

Pressure 29.81 in
Visibility 10.0 miles
Clouds Scattered Clouds 12000 ft
Scattered Clouds 25000 ft
Heat Index 78 °F
Dew Point 68 °F
Humidity 75%
Rainfall 0.00 in
Snow Depth Not available.
UV 0 out of 12
Pollen 7.80 out of 12
Air Quality Not available.
Flu Activity Not available.
METAR KLGA 040451Z 21008KT 10SM SCT120 SCT250 28/17 A2980 RMK AO2 SLP092 T02830167 403330244 $

More Conditions Fewer Conditions

10-Day Weather Forecast

×

Almanac

Astronomy

Aug. 04, 2015 Rise Set
Actual Time
Civil Twilight
Nautical Twilight
Astronomical Twilight
Moon
Length of Visible Light
Length of Day
Tomorrow will be .
, % of the Moon is Illuminated

Today's Extremes

State Highs State Lows

Community

WunderPhotos

Upload Photos

1,843,865 photos uploaded!

WunderBlogs® & News

Nearby

Air Quality

  Air Quality AQ Index Pollutant
Not available.

Snow Depth

Station Depth Elevation

Earthquake Activity

City Distance Mag. Time & Date
Minimum magnitude displayed is 2.5.

Coastal Water Temperatures

Place Temperature

Stations

Nearby Weather Stations

Station Location Temp. Windchill Dew Point Humidity Wind Precip. Elev Updated Type